• In Belarus
  • List of Countries
  • For 7 days
  • Water Temperature
  • Weather Map
  • Weather Widgets
  • user-avatar
    Login

    Hourly Weather La Massana

    Today, 25 January, Saturday

    Time Temperature Precipitation Wind Pressure Humidity
    00:00 -5°C° 0 mm 2 mps 608 mmHg 85%
    01:00 -5°C° 0 mm 2 mps 608 mmHg 86%
    02:00 -5°C° 0 mm 2 mps 607 mmHg 88%
    03:00 -5°C° 0 mm 2 mps 607 mmHg 89%
    04:00 -5°C° 0 mm 2 mps 607 mmHg 90%
    05:00 -4°C° 0 mm 2 mps 607 mmHg 90%
    06:00 -4°C° 0 mm 2 mps 607 mmHg 91%
    07:00 -3°C° 0 mm 2 mps 608 mmHg 90%
    08:00 0°C° 0 mm 1 mps 609 mmHg 89%
    09:00 0°C° 0 mm 1 mps 609 mmHg 88%
    10:00 -1°C° 0 mm 2 mps 609 mmHg 87%
    11:00 +1°C° 0 mm 2 mps 609 mmHg 87%
    12:00 +1°C° 0 mm 2 mps 609 mmHg 86%
    13:00 +1°C° 0.1 mm 2 mps 609 mmHg 88%
    14:00 +2°C° 0.1 mm 1 mps 608 mmHg 90%
    15:00 +2°C° 0.1 mm 1 mps 608 mmHg 92%
    16:00 +1°C° 0.1 mm 1 mps 607 mmHg 93%
    17:00 0°C° 0.1 mm 1 mps 607 mmHg 94%
    18:00 0°C° 0.1 mm 1 mps 607 mmHg 95%
    19:00 0°C° 0.1 mm 1 mps 607 mmHg 95%
    20:00 0°C° 0.1 mm 1 mps 607 mmHg 95%
    21:00 0°C° 0.1 mm 1 mps 607 mmHg 95%
    22:00 -1°C° 0 mm 1 mps 607 mmHg 95%
    23:00 -1°C° 0 mm 1 mps 607 mmHg 95%

    Tomorrow, 26 January, Sunday

    Time Temperature Precipitation Wind Pressure Humidity
    00:00 -1°C° 0 mm 1 mps 607 mmHg 94%
    01:00 -1°C° 0 mm 1 mps 607 mmHg 94%
    02:00 -1°C° 0 mm 1 mps 606 mmHg 94%
    03:00 -2°C° 0 mm 1 mps 606 mmHg 93%
    04:00 -2°C° 0 mm 1 mps 606 mmHg 92%
    05:00 -2°C° 0 mm 1 mps 606 mmHg 91%
    06:00 -3°C° 0 mm 1 mps 606 mmHg 90%
    07:00 -2°C° 0 mm 1 mps 607 mmHg 89%
    08:00 -1°C° 0 mm 1 mps 608 mmHg 88%
    09:00 0°C° 0 mm 1 mps 608 mmHg 87%
    10:00 +1°C° 0 mm 1 mps 609 mmHg 86%
    11:00 +1°C° 0 mm 1 mps 609 mmHg 86%
    12:00 +2°C° 0 mm 1 mps 609 mmHg 85%
    13:00 +2°C° 0 mm 1 mps 609 mmHg 86%
    14:00 +2°C° 0 mm 1 mps 609 mmHg 87%
    15:00 +2°C° 0 mm 1 mps 609 mmHg 88%
    16:00 +1°C° 0 mm 1 mps 608 mmHg 90%
    17:00 -1°C° 0 mm 1 mps 608 mmHg 91%
    18:00 -2°C° 0 mm 1 mps 608 mmHg 93%
    19:00 -2°C° 0 mm 1 mps 608 mmHg 91%
    20:00 -3°C° 0 mm 1 mps 608 mmHg 89%
    21:00 -3°C° 0 mm 1 mps 608 mmHg 87%
    22:00 -3°C° 0 mm 1 mps 608 mmHg 87%
    23:00 -3°C° 0 mm 1 mps 608 mmHg 86%

    Day after tomorrow, 27 January, Monday

    Time Temperature Precipitation Wind Pressure Humidity
    00:00 -4°C° 0 mm 1 mps 608 mmHg 86%
    01:00 -4°C° 0 mm 1 mps 607 mmHg 84%
    02:00 -4°C° 0 mm 1 mps 607 mmHg 81%
    03:00 -3°C° 0 mm 1 mps 607 mmHg 79%
    04:00 -3°C° 0 mm 1 mps 607 mmHg 75%
    05:00 -3°C° 0 mm 1 mps 607 mmHg 72%
    06:00 -3°C° 0 mm 1 mps 607 mmHg 68%
    07:00 -2°C° 0 mm 1 mps 607 mmHg 67%
    08:00 -1°C° 0 mm 1 mps 608 mmHg 66%
    09:00 0°C° 0 mm 1 mps 609 mmHg 65%
    10:00 +1°C° 0 mm 1 mps 609 mmHg 67%
    11:00 +2°C° 0 mm 1 mps 609 mmHg 70%
    12:00 +3°C° 0 mm 1 mps 609 mmHg 73%
    13:00 +2°C° 0 mm 1 mps 608 mmHg 77%
    14:00 +2°C° 0 mm 1 mps 608 mmHg 81%
    15:00 +2°C° 0 mm 1 mps 607 mmHg 85%
    16:00 -1°C° 0 mm 2 mps 606 mmHg 88%
    17:00 -2°C° 0 mm 2 mps 606 mmHg 90%
    18:00 -2°C° 0 mm 2 mps 606 mmHg 93%
    19:00 -2°C° 0.1 mm 2 mps 606 mmHg 93%
    20:00 -2°C° 0.1 mm 2 mps 606 mmHg 93%
    21:00 -2°C° 0.1 mm 2 mps 606 mmHg 94%
    22:00 -2°C° 0.1 mm 2 mps 605 mmHg 94%
    23:00 -2°C° 0.1 mm 2 mps 605 mmHg 94%

    28 January, Tuesday

    Time Temperature Precipitation Wind Pressure Humidity
    00:00 -2°C° 0.1 mm 2 mps 605 mmHg 95%
    01:00 -2°C° 0 mm 2 mps 605 mmHg 95%
    02:00 0°C° 0 mm 1 mps 605 mmHg 94%
    03:00 0°C° 0 mm 1 mps 605 mmHg 94%
    04:00 0°C° 0 mm 1 mps 605 mmHg 94%
    05:00 0°C° 0 mm 1 mps 605 mmHg 94%
    06:00 -1°C° 0 mm 1 mps 605 mmHg 95%
    07:00 0°C° 0.1 mm 1 mps 606 mmHg 94%
    08:00 0°C° 0.1 mm 1 mps 606 mmHg 94%
    09:00 0°C° 0.1 mm 1 mps 607 mmHg 93%
    10:00 +1°C° 0.1 mm 1 mps 607 mmHg 92%
    11:00 +1°C° 0.1 mm 1 mps 608 mmHg 91%
    12:00 +2°C° 0.1 mm 1 mps 608 mmHg 90%
    13:00 +2°C° 0 mm 1 mps 608 mmHg 90%
    14:00 +2°C° 0 mm 1 mps 607 mmHg 90%
    15:00 +2°C° 0 mm 1 mps 607 mmHg 89%
    16:00 +1°C° 0 mm 1 mps 607 mmHg 91%
    17:00 0°C° 0 mm 1 mps 607 mmHg 92%
    18:00 -2°C° 0 mm 1 mps 607 mmHg 93%
    19:00 -2°C° 0 mm 1 mps 607 mmHg 92%
    20:00 -2°C° 0 mm 1 mps 607 mmHg 91%
    21:00 -3°C° 0 mm 1 mps 607 mmHg 90%
    22:00 -3°C° 0 mm 1 mps 607 mmHg 89%
    23:00 -3°C° 0 mm 1 mps 607 mmHg 88%

    29 January, Wednesday

    Time Temperature Precipitation Wind Pressure Humidity
    00:00 -3°C° 0 mm 1 mps 607 mmHg 87%
    01:00 -3°C° 0 mm 1 mps 607 mmHg 84%
    02:00 -3°C° 0 mm 1 mps 607 mmHg 82%
    03:00 -3°C° 0 mm 1 mps 607 mmHg 80%
    04:00 -3°C° 0 mm 1 mps 606 mmHg 77%
    05:00 -4°C° 0 mm 1 mps 606 mmHg 75%
    06:00 -4°C° 0 mm 1 mps 606 mmHg 72%
    07:00 -3°C° 0 mm 1 mps 607 mmHg 71%
    08:00 -1°C° 0 mm 1 mps 608 mmHg 69%
    09:00 -1°C° 0 mm 0 mps 609 mmHg 67%
    10:00 +1°C° 0 mm 1 mps 609 mmHg 69%
    11:00 +2°C° 0 mm 1 mps 610 mmHg 70%
    12:00 +3°C° 0 mm 1 mps 610 mmHg 72%
    13:00 +3°C° 0 mm 1 mps 610 mmHg 74%
    14:00 +3°C° 0 mm 1 mps 609 mmHg 76%
    15:00 +2°C° 0 mm 0 mps 609 mmHg 78%
    16:00 +2°C° 0 mm 1 mps 609 mmHg 78%
    17:00 0°C° 0 mm 1 mps 608 mmHg 79%
    18:00 -1°C° 0 mm 1 mps 608 mmHg 80%
    19:00 -1°C° 0 mm 1 mps 608 mmHg 75%
    20:00 -1°C° 0 mm 1 mps 608 mmHg 70%
    21:00 -1°C° 0 mm 1 mps 608 mmHg 65%
    22:00 -1°C° 0 mm 1 mps 608 mmHg 67%
    23:00 -1°C° 0 mm 1 mps 608 mmHg 68%

    30 January, Thursday

    Time Temperature Precipitation Wind Pressure Humidity
    00:00 -1°C° 0 mm 1 mps 608 mmHg 69%
    01:00 -1°C° 0 mm 1 mps 608 mmHg 69%
    02:00 0°C° 0 mm 1 mps 608 mmHg 68%
    03:00 0°C° 0 mm 1 mps 608 mmHg 67%
    04:00 0°C° 0 mm 1 mps 608 mmHg 69%
    05:00 0°C° 0 mm 1 mps 608 mmHg 72%
    06:00 0°C° 0 mm 1 mps 607 mmHg 75%
    07:00 +1°C° 0 mm 1 mps 608 mmHg 78%
    08:00 +2°C° 0 mm 1 mps 608 mmHg 82%
    09:00 +3°C° 0 mm 1 mps 609 mmHg 85%
    10:00 +3°C° 0 mm 1 mps 609 mmHg 85%
    11:00 +4°C° 0 mm 1 mps 609 mmHg 84%
    12:00 +5°C° 0 mm 1 mps 610 mmHg 83%
    13:00 +5°C° 0 mm 1 mps 610 mmHg 84%
    14:00 +5°C° 0 mm 1 mps 609 mmHg 85%
    15:00 +5°C° 0 mm 1 mps 609 mmHg 86%
    16:00 +4°C° 0 mm 1 mps 609 mmHg 88%
    17:00 +3°C° 0 mm 1 mps 609 mmHg 89%
    18:00 +2°C° 0 mm 1 mps 608 mmHg 91%
    19:00 +2°C° 0 mm 1 mps 609 mmHg 90%
    20:00 +2°C° 0 mm 1 mps 609 mmHg 89%
    21:00 +2°C° 0 mm 1 mps 609 mmHg 88%
    22:00 +2°C° 0 mm 1 mps 609 mmHg 88%
    23:00 +2°C° 0 mm 1 mps 609 mmHg 89%
    Show more